STARLINK-11157, 60122

Orbit data source: Space-Track

STARLINK-11157, 60122 is a payload satellite owned by SpaceX/Seattle (US) in LEO that was launched on Mon, 24 Jun 2024 UTC via an FALCON 9 launch vehicle from the Air Force Western Test Range (AFWTR). Payload-class satellites include a variety of spacecraft equipped with specific instruments for various scientific and technological missions. These include communications satellites like Starlink; space stations such as the ISS; scientific satellites like the Hubble; Earth observation satellites from companies like Planet Labs, Umbra, and HawkEye 360; GPS; miniature CubeSats for education and research; and military/defense satellites.

Loading next visibility...
Identifier
60122, 2024-118K
Orbit
LEO
Country
Flag of USUS
Related business
Manufacturer
SpaceX/Seattle
Mission
Operational Commercial Communications
Bus & Motor
STARLINK V2MD, Unknown motor
Mass
960 kg wet, ~910 kg dry
Launch date (UTC)
2024-06-24 (2 years ago)
Launch vehicle
FALCON 9
Launch site
Air Force Western Test Range (AFWTR)
Object type
Payload
Rocket body
Debris
Shape & HBR
Box + 2 Pan, 18.1 m
Radar Cross Section
36.964 m², Large (>1 m²)

Expand to show TLE details & history
Last TLE update: 10 hours ago

TLE from 10 hours ago
0 STARLINK-11157
1 60122U 24118K   26126.86869303  .00012632  00000-0  10894-3 0  9996
2 60122  53.1582 294.2634 0001033  72.0817 288.0313 15.69714882107137
Epoch: 2026-05-06T20:50Z
TLE epoch observation values (Epoch: 2026-05-06T20:50:55.077Z)
Latitude
-0.00008°
Longitude
116.81085°
Altitude
360.412 km
Speed
7.694 km/s
True Right ascension
19h 37m 03s
True Declination
0° 00' 00"
Sunlit
Object was in partial shadow at epoch
Visualization orbit readout
Latitude
Unknown
Longitude
Unknown
Altitude
Unknown
Speed
Unknown
Apparent Right ascension
Unknown
Apparent Declination
Unknown
Sunlit
N/A
Visualization observer readout
Local Sidereal Time
14:42:35
Azimuth
Unknown
Elevation
Unknown
Doppler factor
Unknown
Orbital elements
Apogee altitude
360.67 km
Perigee altitude
359.278 km
Semi-major axis
6,738.111 km
Eccentricity
0.0001
Inclination
53.1582°
RAAN
294.2634°
Arg. of periapsis
72.0817°
True anomaly
288.02004°
Mean anomaly
288.0313°
Eccentric anomaly
288.02567°
Mean motion
3.92406 °/min
Orbital period
91.74 mins
BSTAR
0.00010894
Loading maneuver chart data...
Computing Atmospheric mass density...
Loading historical data...
Loading historical data...
Loading historical data...
Loading historical data...
Loading historical data...
Loading historical data...
Loading historical data...

Documentation

Showing up to 5 results
|